Simultaneous Nadir Overpasses (SNOs) Predictions

Prediction of SNOs between GOES-17 and AQUA Satellite Orbit:

Table of predicted SNOs for the next 14.0 days since TLE Epoch: 5/18/2024
Index Date Time (GOES-17) GOES-17 Lat,Lon AQUA Lat,Lon Distance(km) Time Diff (sec)
1 05/18/2024 21:07:03 0.01,-104.70 0.08,-104.34 40.83 80
2 05/20/2024 20:50:40 0.01,-104.70 0.94,-100.33 497.19 80
3 05/21/2024 09:10:49 -0.01,-104.71 0.10,-105.21 56.75 80
4 05/23/2024 08:51:43 -0.02,-104.71 -0.76,-101.19 399.98 80
5 05/23/2024 21:12:01 0.02,-104.70 -0.29,-106.11 159.87 80
6 05/25/2024 20:58:13 0.03,-104.70 0.57,-102.08 297.41 80
7 05/26/2024 09:18:22 -0.03,-104.71 0.46,-106.96 256.21 80
8 05/28/2024 09:01:52 -0.03,-104.70 -0.41,-102.93 201.85 80
9 05/28/2024 21:19:29 0.03,-104.69 -0.64,-107.83 357.75 80
10 05/30/2024 21:05:37 0.03,-104.68 0.23,-103.79 101.59 80
11 05/31/2024 09:23:05 -0.03,-104.69 0.80,-108.67 451.36 80
